KLM553 EHAM-HECA

Flight info

Callsign KLM553
Flight time N/A
Altitude 35000
Route EDUPO Z739 MISGO/N0478F390 DCT DOJOH DCT DODEN DCT NEGIX DCT DINKU M867 XERUM DCT BAVAX DCT RADIZ DCT NEMEK DCT MAVAR DCT BITLA DCT KPC UN139 KUMBI L612 BLT A16 CVO
Aircraft MD11/H-SDE1E2E3FGHIJ2J3J4J5M1RWXY/LB1D1

Departure

Time N/A
Airport Amsterdam Airport Schiphol (EHAM)

Arrival

Time 2026-04-27 14:55
Airport Cairo International Airport (HECA)
Time Latitude Longitude Altitude Speed Heading
2026-04-27 12:53 42.56694 19.42835 39114 ft 500 kts 139°
2026-04-27 12:54 42.51613 19.49281 39101 ft 500 kts 139°
2026-04-27 12:54 42.46540 19.55726 39088 ft 499 kts 139°
2026-04-27 12:55 42.41503 19.62116 39115 ft 499 kts 139°
2026-04-27 12:55 42.36432 19.68529 39118 ft 499 kts 139°
2026-04-27 12:56 42.31367 19.74923 39118 ft 498 kts 139°
2026-04-27 12:56 42.26298 19.81307 39133 ft 498 kts 139°
2026-04-27 12:57 42.21232 19.87673 39129 ft 497 kts 139°
2026-04-27 12:57 42.16163 19.94027 39136 ft 497 kts 139°
2026-04-27 12:58 42.11091 20.00371 39128 ft 497 kts 139°
2026-04-27 12:58 42.06044 20.06669 39132 ft 497 kts 139°
2026-04-27 12:59 42.00961 20.12996 39127 ft 497 kts 139°
2026-04-27 12:59 41.95853 20.19297 39131 ft 498 kts 139°
2026-04-27 13:00 41.90750 20.25595 39139 ft 498 kts 139°
2026-04-27 13:00 41.85679 20.31856 39138 ft 498 kts 139°
2026-04-27 13:01 41.80573 20.38132 39137 ft 498 kts 140°
2026-04-27 13:01 41.75263 20.44084 39131 ft 497 kts 143°
2026-04-27 13:02 41.69844 20.49830 39133 ft 497 kts 144°
2026-04-27 13:02 41.64406 20.55583 39130 ft 498 kts 144°
2026-04-27 13:03 41.58983 20.61345 39127 ft 498 kts 143°
2026-04-27 13:03 41.53563 20.67112 39126 ft 498 kts 143°
2026-04-27 13:04 41.48141 20.72871 39119 ft 498 kts 144°
2026-04-27 13:04 41.42710 20.78622 39122 ft 498 kts 144°
2026-04-27 13:05 41.37281 20.84360 39125 ft 499 kts 144°
2026-04-27 13:05 41.31873 20.90059 39124 ft 498 kts 144°
2026-04-27 13:06 41.26429 20.95785 39121 ft 498 kts 144°
2026-04-27 13:06 41.20997 21.01491 39124 ft 497 kts 144°
2026-04-27 13:07 41.15604 21.07138 39125 ft 497 kts 144°
2026-04-27 13:07 41.10149 21.12802 39123 ft 497 kts 144°
2026-04-27 13:08 41.04699 21.18459 39131 ft 497 kts 144°
2026-04-27 13:08 40.99259 21.24114 39125 ft 497 kts 145°
2026-04-27 13:09 40.93812 21.29771 39131 ft 497 kts 144°
2026-04-27 13:09 40.88400 21.35379 39132 ft 497 kts 145°
2026-04-27 13:10 40.82919 21.41046 39138 ft 497 kts 145°
2026-04-27 13:10 40.77503 21.46634 39135 ft 497 kts 145°
2026-04-27 13:11 40.72050 21.52247 39131 ft 497 kts 145°
2026-04-27 13:11 40.66647 21.57928 39139 ft 498 kts 142°
2026-04-27 13:12 40.61431 21.63947 39135 ft 499 kts 141°
2026-04-27 13:12 40.56267 21.70057 39139 ft 498 kts 140°
2026-04-27 13:13 40.51130 21.76095 39133 ft 499 kts 141°
2026-04-27 13:13 40.45936 21.82147 39148 ft 499 kts 141°
2026-04-27 13:14 40.40729 21.88196 39154 ft 500 kts 141°
2026-04-27 13:14 40.35519 21.94235 39156 ft 500 kts 141°
2026-04-27 13:15 40.30305 22.00271 39155 ft 500 kts 141°
2026-04-27 13:15 40.25082 22.06306 39153 ft 500 kts 141°
2026-04-27 13:16 40.19891 22.12290 39148 ft 500 kts 141°
2026-04-27 13:16 40.14669 22.18295 39149 ft 500 kts 141°
2026-04-27 13:17 40.09442 22.24296 39157 ft 500 kts 141°
2026-04-27 13:17 40.04207 22.30278 39153 ft 500 kts 141°
2026-04-27 13:18 39.98964 22.36234 39162 ft 500 kts 141°
2026-04-27 13:18 39.93725 22.42188 39154 ft 499 kts 141°
2026-04-27 13:19 39.88500 22.48132 39159 ft 498 kts 141°
2026-04-27 13:19 39.83288 22.54057 39157 ft 497 kts 141°
2026-04-27 13:20 39.78957 22.58966 39169 ft 497 kts 141°
2026-04-27 13:20 39.72894 22.65821 39163 ft 497 kts 141°
2026-04-27 13:21 39.68524 22.70752 39159 ft 497 kts 141°
2026-04-27 13:21 39.63336 22.76597 39169 ft 496 kts 141°
2026-04-27 13:22 39.58115 22.82467 39169 ft 496 kts 141°
2026-04-27 13:22 39.52895 22.88324 39176 ft 496 kts 141°
2026-04-27 13:23 39.47679 22.94164 39176 ft 495 kts 141°
2026-04-27 13:23 39.42459 22.99987 39182 ft 495 kts 141°
2026-04-27 13:24 39.37226 23.05784 39174 ft 495 kts 141°
2026-04-27 13:24 39.31994 23.11589 39192 ft 495 kts 141°
2026-04-27 13:25 39.26766 23.17388 39191 ft 495 kts 141°
2026-04-27 13:25 39.21538 23.23183 39179 ft 495 kts 141°
2026-04-27 13:26 39.16334 23.28942 39179 ft 496 kts 142°
2026-04-27 13:26 39.11091 23.34728 39185 ft 495 kts 141°
2026-04-27 13:27 39.05857 23.40490 39187 ft 495 kts 142°
2026-04-27 13:27 39.00612 23.46255 39186 ft 495 kts 142°
2026-04-27 13:28 38.95374 23.52001 39181 ft 494 kts 142°
2026-04-27 13:28 38.90169 23.57697 39181 ft 494 kts 142°
2026-04-27 13:29 38.84929 23.63423 39168 ft 494 kts 142°
2026-04-27 13:29 38.79689 23.69135 39173 ft 494 kts 142°
2026-04-27 13:30 38.74432 23.74821 39168 ft 494 kts 142°
2026-04-27 13:30 38.69181 23.80500 39168 ft 493 kts 142°
2026-04-27 13:31 38.63942 23.86173 39160 ft 493 kts 142°
2026-04-27 13:31 38.58731 23.91811 39158 ft 494 kts 142°
2026-04-27 13:32 38.53490 23.97470 39154 ft 493 kts 142°
2026-04-27 13:32 38.48245 24.03125 39150 ft 493 kts 142°
2026-04-27 13:33 38.42992 24.08773 39146 ft 494 kts 142°
2026-04-27 13:33 38.37742 24.14405 39146 ft 493 kts 142°
2026-04-27 13:34 38.32483 24.20034 39143 ft 493 kts 142°
2026-04-27 13:34 38.27224 24.25653 39136 ft 494 kts 142°
2026-04-27 13:35 38.21956 24.31273 39138 ft 494 kts 142°
2026-04-27 13:35 38.16685 24.36885 39137 ft 494 kts 142°
2026-04-27 13:36 38.11404 24.42467 39135 ft 494 kts 142°
2026-04-27 13:36 38.06156 24.48012 39131 ft 494 kts 142°
2026-04-27 13:37 38.00866 24.53604 39127 ft 494 kts 142°
2026-04-27 13:37 37.95587 24.59180 39123 ft 494 kts 142°
2026-04-27 13:38 37.90297 24.64759 39116 ft 494 kts 142°
2026-04-27 13:38 37.85011 24.70327 39110 ft 494 kts 142°
2026-04-27 13:39 37.79725 24.75875 39113 ft 494 kts 142°
2026-04-27 13:39 37.74434 24.81420 39100 ft 494 kts 142°
2026-04-27 13:40 37.69166 24.86928 39104 ft 495 kts 142°
2026-04-27 13:40 37.63862 24.92466 39101 ft 495 kts 142°
2026-04-27 13:41 37.58553 24.98001 39102 ft 495 kts 142°
2026-04-27 13:41 37.53237 25.03531 39098 ft 495 kts 142°
2026-04-27 13:42 37.47914 25.09032 39095 ft 495 kts 143°
2026-04-27 13:42 37.42576 25.14540 39098 ft 496 kts 143°
2026-04-27 13:43 37.37275 25.20017 39095 ft 496 kts 143°
2026-04-27 13:43 37.31937 25.25527 39095 ft 496 kts 143°
2026-04-27 13:44 37.26595 25.31028 39081 ft 496 kts 143°
2026-04-27 13:44 37.21256 25.36520 39075 ft 496 kts 143°
2026-04-27 13:45 37.15910 25.42007 39073 ft 497 kts 143°
2026-04-27 13:45 37.10549 25.47498 39075 ft 498 kts 143°
2026-04-27 13:46 37.05217 25.52952 39071 ft 498 kts 143°
2026-04-27 13:46 36.99847 25.58434 39070 ft 498 kts 143°
2026-04-27 13:47 36.94471 25.63909 39063 ft 498 kts 143°
2026-04-27 13:47 36.89094 25.69379 39048 ft 499 kts 143°
2026-04-27 13:48 36.83691 25.74837 39047 ft 500 kts 143°
2026-04-27 13:48 36.78304 25.80269 39045 ft 500 kts 143°
2026-04-27 13:49 36.72886 25.85735 39046 ft 500 kts 143°
2026-04-27 13:49 36.67479 25.91196 39040 ft 500 kts 143°
2026-04-27 13:50 36.62082 25.96634 39037 ft 500 kts 143°
2026-04-27 13:50 36.56665 26.02081 39033 ft 501 kts 143°
2026-04-27 13:51 36.51239 26.07520 39035 ft 500 kts 143°
2026-04-27 13:51 36.45816 26.12955 39034 ft 500 kts 143°
2026-04-27 13:52 36.40430 26.18337 39032 ft 499 kts 143°
2026-04-27 13:52 36.35008 26.23750 39031 ft 499 kts 143°
2026-04-27 13:53 36.26868 26.31854 39032 ft 500 kts 143°
2026-04-27 13:54 36.21470 26.37210 39018 ft 500 kts 144°
2026-04-27 13:54 36.16031 26.42576 39016 ft 499 kts 144°
2026-04-27 13:55 36.10595 26.47943 39029 ft 499 kts 144°
2026-04-27 13:55 36.05162 26.53308 39017 ft 499 kts 143°
2026-04-27 13:56 35.99723 26.58674 39011 ft 500 kts 144°
2026-04-27 13:56 35.94317 26.63994 39022 ft 500 kts 144°
2026-04-27 13:57 35.88873 26.69341 39018 ft 500 kts 144°
2026-04-27 13:57 35.83421 26.74688 39022 ft 500 kts 144°
2026-04-27 13:58 35.77969 26.80031 39022 ft 500 kts 144°
2026-04-27 13:58 35.72512 26.85361 39016 ft 501 kts 144°
2026-04-27 13:59 35.67050 26.90686 39012 ft 500 kts 144°
2026-04-27 13:59 35.61594 26.95998 39011 ft 500 kts 144°
2026-04-27 14:00 35.56140 27.01295 38998 ft 500 kts 144°
2026-04-27 14:00 35.50696 27.06547 38994 ft 500 kts 144°
2026-04-27 14:01 35.45222 27.11836 38997 ft 501 kts 144°
2026-04-27 14:01 35.39762 27.17146 38992 ft 502 kts 144°
2026-04-27 14:02 35.34280 27.22455 39007 ft 502 kts 144°
2026-04-27 14:02 35.28788 27.27743 39002 ft 502 kts 144°
2026-04-27 14:03 35.23281 27.33028 39001 ft 503 kts 144°
2026-04-27 14:03 35.17779 27.38304 38997 ft 502 kts 144°
2026-04-27 14:04 35.12278 27.43577 38997 ft 502 kts 145°
2026-04-27 14:04 35.06772 27.48838 38999 ft 502 kts 145°
2026-04-27 14:05 35.01265 27.54088 38999 ft 502 kts 145°
2026-04-27 14:05 34.95758 27.59336 39001 ft 502 kts 145°
2026-04-27 14:06 34.90288 27.64549 38997 ft 502 kts 145°
2026-04-27 14:06 34.84788 27.69787 38985 ft 502 kts 145°
2026-04-27 14:07 34.79265 27.75034 38997 ft 504 kts 145°
2026-04-27 14:07 34.73732 27.80282 38999 ft 504 kts 145°
2026-04-27 14:08 34.68195 27.85521 38997 ft 504 kts 145°
2026-04-27 14:08 34.63589 27.89877 38995 ft 504 kts 145°
2026-04-27 14:09 34.57148 27.95958 38997 ft 504 kts 145°
2026-04-27 14:09 34.51595 28.01186 38998 ft 506 kts 145°
2026-04-27 14:10 34.46969 28.05534 39001 ft 506 kts 145°
2026-04-27 14:10 34.41395 28.10767 39004 ft 507 kts 145°
2026-04-27 14:11 34.35814 28.15981 39007 ft 506 kts 145°
2026-04-27 14:11 34.30237 28.21179 39002 ft 506 kts 145°
2026-04-27 14:12 34.24654 28.26384 38996 ft 507 kts 146°
2026-04-27 14:12 34.19062 28.31595 39001 ft 508 kts 146°
2026-04-27 14:13 34.13461 28.36806 39004 ft 508 kts 145°
2026-04-27 14:13 34.07862 28.42014 39004 ft 508 kts 146°
2026-04-27 14:14 34.02296 28.47177 38999 ft 508 kts 146°
2026-04-27 14:14 33.96685 28.52372 39001 ft 508 kts 146°
2026-04-27 14:15 33.91073 28.57560 38996 ft 509 kts 146°
2026-04-27 14:15 33.85437 28.62759 39002 ft 509 kts 146°
2026-04-27 14:16 33.79810 28.67942 38995 ft 509 kts 146°
2026-04-27 14:16 33.74225 28.73081 38999 ft 508 kts 146°
2026-04-27 14:17 33.68599 28.78222 38994 ft 508 kts 146°
2026-04-27 14:17 33.63132 28.83623 38990 ft 512 kts 141°
2026-04-27 14:18 33.57931 28.89486 38996 ft 513 kts 139°
2026-04-27 14:18 33.52763 28.95412 38992 ft 513 kts 139°
2026-04-27 14:19 33.47582 29.01278 38992 ft 512 kts 140°
2026-04-27 14:19 33.42381 29.07116 38991 ft 512 kts 140°
2026-04-27 14:20 33.37174 29.12942 38992 ft 512 kts 140°
2026-04-27 14:20 33.31967 29.18762 38978 ft 513 kts 140°
2026-04-27 14:21 33.26738 29.24597 38984 ft 515 kts 140°
2026-04-27 14:21 33.21498 29.30433 38988 ft 515 kts 140°
2026-04-27 14:22 33.16287 29.36232 38985 ft 515 kts 140°
2026-04-27 14:22 33.11042 29.42064 38986 ft 515 kts 140°
2026-04-27 14:23 33.05790 29.47883 38984 ft 515 kts 140°
2026-04-27 14:23 33.00531 29.53674 38959 ft 514 kts 141°
2026-04-27 14:24 32.95263 29.59474 38985 ft 516 kts 140°
2026-04-27 14:24 32.90024 29.65245 38977 ft 516 kts 140°
2026-04-27 14:25 32.84746 29.71057 38980 ft 516 kts 140°
2026-04-27 14:25 32.79460 29.76868 38978 ft 517 kts 141°
2026-04-27 14:26 32.74208 29.82627 38975 ft 516 kts 141°
2026-04-27 14:26 32.68929 29.88409 38975 ft 516 kts 141°
2026-04-27 14:27 32.63639 29.94194 38973 ft 518 kts 141°
2026-04-27 14:27 32.58332 29.99986 38977 ft 518 kts 141°
2026-04-27 14:28 32.53025 30.05768 38977 ft 519 kts 141°
2026-04-27 14:28 32.47703 30.11549 38977 ft 518 kts 141°
2026-04-27 14:29 32.42376 30.17302 38971 ft 518 kts 141°
2026-04-27 14:29 32.37057 30.23050 38974 ft 518 kts 141°
2026-04-27 14:30 32.31765 30.28767 38970 ft 519 kts 141°
2026-04-27 14:30 32.26417 30.34539 38973 ft 520 kts 141°
2026-04-27 14:31 32.21076 30.40291 38971 ft 520 kts 141°
2026-04-27 14:31 32.15721 30.46049 38975 ft 520 kts 141°
2026-04-27 14:32 32.10367 30.51795 38901 ft 522 kts 141°
2026-04-27 14:32 32.07688 30.54670 38653 ft 520 kts 141°
2026-04-27 14:32 32.05005 30.57545 38204 ft 521 kts 141°
2026-04-27 14:32 32.02327 30.60410 37599 ft 519 kts 141°
2026-04-27 14:33 31.99652 30.63270 37032 ft 518 kts 141°
2026-04-27 14:33 31.96991 30.66112 36481 ft 517 kts 141°
2026-04-27 14:33 31.94329 30.68954 35953 ft 515 kts 140°
2026-04-27 14:33 31.91678 30.71781 35399 ft 514 kts 140°
2026-04-27 14:34 31.89031 30.74603 34868 ft 513 kts 140°
2026-04-27 14:34 31.86389 30.77409 34326 ft 511 kts 140°
2026-04-27 14:34 31.83749 30.80203 33722 ft 510 kts 140°
2026-04-27 14:34 31.81111 30.82995 33130 ft 510 kts 140°
2026-04-27 14:35 31.78473 30.85787 32523 ft 511 kts 140°
2026-04-27 14:35 31.75832 30.88584 31953 ft 512 kts 140°
2026-04-27 14:35 31.73184 30.91391 31390 ft 514 kts 139°
2026-04-27 14:35 31.70526 30.94209 30793 ft 515 kts 139°
2026-04-27 14:36 31.67864 30.97031 30170 ft 515 kts 139°
2026-04-27 14:36 31.65205 30.99848 29508 ft 513 kts 139°
2026-04-27 14:36 31.62569 31.02637 28856 ft 508 kts 139°
2026-04-27 14:36 31.59953 31.05403 28246 ft 504 kts 139°
2026-04-27 14:37 31.57392 31.08105 27672 ft 500 kts 139°
2026-04-27 14:37 31.54724 31.10673 27057 ft 494 kts 146°
2026-04-27 14:37 31.51759 31.12628 26392 ft 486 kts 159°
2026-04-27 14:37 31.48561 31.13790 25768 ft 478 kts 171°
2026-04-27 14:38 31.45299 31.14388 25153 ft 472 kts 176°
2026-04-27 14:38 31.42043 31.14792 24535 ft 469 kts 177°
2026-04-27 14:38 31.38812 31.15190 23910 ft 466 kts 176°
2026-04-27 14:38 31.35609 31.15647 23260 ft 463 kts 175°
2026-04-27 14:39 31.32428 31.16166 22585 ft 459 kts 174°
2026-04-27 14:39 31.29285 31.16723 21952 ft 455 kts 173°
2026-04-27 14:39 31.26173 31.17299 21345 ft 451 kts 173°
2026-04-27 14:39 31.23088 31.17879 20739 ft 447 kts 173°
2026-04-27 14:40 31.20032 31.18456 20105 ft 443 kts 172°
2026-04-27 14:40 31.17009 31.19026 19495 ft 438 kts 172°
2026-04-27 14:40 31.14005 31.19592 18893 ft 435 kts 172°
2026-04-27 14:40 31.11029 31.20150 18308 ft 432 kts 172°
2026-04-27 14:41 31.08072 31.20704 17648 ft 428 kts 172°
2026-04-27 14:41 31.05150 31.21250 17020 ft 424 kts 172°
2026-04-27 14:41 31.02246 31.21792 16410 ft 420 kts 172°
2026-04-27 14:41 30.99367 31.22328 15839 ft 417 kts 172°
2026-04-27 14:42 30.96512 31.22859 15283 ft 414 kts 172°
2026-04-27 14:42 30.93672 31.23388 14720 ft 411 kts 172°
2026-04-27 14:42 30.90860 31.23913 14190 ft 409 kts 171°
2026-04-27 14:42 30.88061 31.24433 13628 ft 406 kts 172°
2026-04-27 14:43 30.85318 31.24942 13046 ft 404 kts 172°
2026-04-27 14:43 30.82513 31.25465 12471 ft 402 kts 171°
2026-04-27 14:43 30.79755 31.25979 11920 ft 400 kts 171°
2026-04-27 14:43 30.77020 31.26487 11414 ft 397 kts 171°
2026-04-27 14:44 30.74301 31.26991 11059 ft 395 kts 171°
2026-04-27 14:44 30.71608 31.27494 10892 ft 382 kts 171°
2026-04-27 14:44 30.69060 31.27970 10792 ft 360 kts 171°
2026-04-27 14:44 30.66653 31.28419 10666 ft 341 kts 171°
2026-04-27 14:45 30.64372 31.28842 10546 ft 324 kts 171°
2026-04-27 14:45 30.62167 31.29250 10430 ft 319 kts 171°
2026-04-27 14:45 30.59979 31.29655 10199 ft 318 kts 171°
2026-04-27 14:45 30.57793 31.30059 9742 ft 317 kts 171°
2026-04-27 14:46 30.55622 31.30459 9207 ft 314 kts 171°
2026-04-27 14:46 30.53482 31.30852 8718 ft 310 kts 171°
2026-04-27 14:46 30.51368 31.31239 8242 ft 306 kts 171°
2026-04-27 14:46 30.49270 31.31626 7786 ft 304 kts 171°
2026-04-27 14:47 30.47225 31.32046 7335 ft 300 kts 165°
2026-04-27 14:47 30.45312 31.33053 6892 ft 298 kts 148°
2026-04-27 14:47 30.43631 31.34390 6442 ft 296 kts 143°
2026-04-27 14:47 30.41990 31.35818 6007 ft 294 kts 142°
2026-04-27 14:48 30.40369 31.37245 5581 ft 292 kts 142°
2026-04-27 14:48 30.37150 31.40073 4722 ft 288 kts 142°
2026-04-27 14:48 30.35561 31.41458 4319 ft 284 kts 143°
2026-04-27 14:49 30.33988 31.42821 3955 ft 280 kts 143°
2026-04-27 14:49 30.32430 31.44169 3601 ft 279 kts 143°
2026-04-27 14:49 30.30874 31.45514 3252 ft 279 kts 143°
2026-04-27 14:49 30.29325 31.46851 2887 ft 274 kts 143°
2026-04-27 14:50 30.27852 31.48118 2519 ft 255 kts 143°
2026-04-27 14:50 30.26470 31.49324 2327 ft 246 kts 142°
2026-04-27 14:50 30.25105 31.50511 2219 ft 245 kts 143°
2026-04-27 14:50 30.23726 31.51695 2107 ft 249 kts 143°
2026-04-27 14:51 30.22262 31.52765 2010 ft 246 kts 159°
2026-04-27 14:51 30.20733 31.52964 1964 ft 201 kts 197°
2026-04-27 14:51 30.19637 31.52265 1956 ft 170 kts 229°
2026-04-27 14:51 30.19094 31.51630 1989 ft 167 kts 232°
2026-04-27 14:52 30.18040 31.50333 1964 ft 158 kts 233°
2026-04-27 14:52 30.17260 31.49425 1789 ft 159 kts 230°
2026-04-27 14:52 30.16517 31.48535 1621 ft 151 kts 233°
2026-04-27 14:52 30.15815 31.47641 1438 ft 151 kts 235°
2026-04-27 14:53 30.15113 31.46698 1279 ft 158 kts 236°
2026-04-27 14:53 30.14404 31.45741 1063 ft 155 kts 235°
2026-04-27 14:53 30.13699 31.44812 816 ft 152 kts 235°
2026-04-27 14:53 30.13015 31.43895 646 ft 150 kts 237°
2026-04-27 14:54 30.12337 31.42985 430 ft 149 kts 234°
2026-04-27 14:54 30.11698 31.42130 391 ft 118 kts 230°
2026-04-27 14:54 30.11290 31.41588 391 ft 67 kts 229°
2026-04-27 14:54 30.11007 31.41211 393 ft 57 kts 228°
2026-04-27 14:55 30.10778 31.40907 393 ft 37 kts 229°
2026-04-27 14:55 30.10740 31.40751 390 ft 16 kts 290°
2026-04-27 14:55 30.10801 31.40669 392 ft 12 kts 318°
2026-04-27 14:55 30.10830 31.40595 396 ft 10 kts 261°
2026-04-27 14:56 30.10784 31.40521 391 ft 15 kts 226°
2026-04-27 14:56 30.10704 31.40417 393 ft 19 kts 229°
2026-04-27 14:56 30.10668 31.40341 389 ft 5 kts 274°
2026-04-27 14:56 30.10685 31.40301 390 ft 8 kts 308°
2026-04-27 14:57 30.10721 31.40293 394 ft 8 kts 16°
2026-04-27 14:57 30.10784 31.40362 390 ft 14 kts 49°
2026-04-27 14:57 30.10828 31.40421 388 ft 15 kts 49°
2026-04-27 14:57 30.10886 31.40457 386 ft 7 kts 353°
2026-04-27 14:58 30.10923 31.40405 381 ft 13 kts 290°
2026-04-27 14:58 30.10953 31.40305 377 ft 8 kts 298°
2026-04-27 14:58 30.10983 31.40289 379 ft 6 kts 355°
2026-04-27 14:58 30.11023 31.40300 377 ft 6 kts 20°
2026-04-27 14:59 30.11048 31.40309 373 ft 3 kts 17°
2026-04-27 14:59 30.11051 31.40310 373 ft 0 kts 17°